Tracking 18980 objects as of 19-Feb-2018
HD Live streaming from Space Station
objects crossing your sky now

FENGYUN 1C DEB

Track FENGYUN 1C DEB now!
10-day predictions


NORAD ID: 36729
Int'l Code: 1999-025EBB
Perigee: 838.4 km
Apogee: 908.6 km
Inclination: 98.8 °
Period: 102.3 minutes
Semi major axis: 7244 km
RCS: 0.006 m2 (small)
Launch date: May 10, 1999
Source: People's Republic of China (PRC)
Launch site: Taiyaun Space Center, China (TSC)

Note: This is SATELLITE DEBRIS
aabbcc
Your satellite tracking list
Your tracking list is empty




NASA's NSSDC Master Catalog

Two Line Element Set (TLE):
1 36729U 99025EBB 18047.97464310  .00000202  00000-0  14284-3 0  9992
2 36729  98.8109  94.1929 0048447  54.6604 305.9080 14.07961172472837
Source of the keplerian elements: AFSPC